Concord, NH

10:37 PM EDT on September 22, 2017 (GMT -0400)
Concord Municipal

Weather History for KCON - August, 2014

Change the Weather History Date:

Sunday, August 10, 2014

  Actual Average Record
Temperature  
Mean Temperature 69 °F 70 °F  
Max Temperature 85 °F 82 °F 97 °F (1949)
Min Temperature 52 °F 57 °F 39 °F (1919)
Degree Days  
Heating Degree Days 0 1  
Month to date heating degree days 2 5  
Since 1 June heating degree days 58 107  
Since 1 July heating degree days 2 22  
Cooling Degree Days 4 5  
Month to date cooling degree days 33 53  
Year to date cooling degree days 283 327  
Since 1 June cooling degree days 281 309  
Growing Degree Days 18 (Base 50)    
Moisture  
Dew Point 57 °F    
Average Humidity 63    
Maximum Humidity 93    
Minimum Humidity 32    
Precipitation  
Precipitation T in 0.11 in 2.56 in (1953)
Month to date precipitation 0.03 1.14  
Year to date precipitation 29.09 24.23  
Snow  
Snow 0.00 in 0.00 in 0.00 in (2002)
Month to date snowfall 0.0 0.0  
Since 1 June snowfall 0.0 0.0  
Since 1 July snowfall 0.0 0.0  
Snow Depth 0.00 in    
Sea Level Pressure  
Sea Level Pressure 30.12 in    
Wind  
Wind Speed 3 mph (ESE)    
Max Wind Speed 10 mph    
Max Gust Speed 12 mph    
Visibility 10 miles    
Events Rain    
T = Trace of Precipitation, MM = Missing Value Source: NWS Daily Summary

Daily Weather History Graph

Daily Weather History Graph

Search for Another Location

Airport or City:

Trip Planner

Search our weather history database for the weather conditions in past years. The results will help you decide how hot, cold, wet, or windy it might be!

Date:

Astronomy

Aug. 10, 2014 Rise Set
Actual Time 5:45 AM EDT 7:55 PM EDT
Civil Twilight 5:14 AM EDT 8:27 PM EDT
Nautical Twilight 4:35 AM EDT 9:05 PM EDT
Astronomical Twilight 3:53 AM EDT 9:48 PM EDT
Moon 7:38 PM EDT (8/10) 5:35 AM EDT (8/10)
Length of Visible Light 15h 12m
Length of Day
14h 10m
Full, 100% of the Moon is Illuminated
Aug 10
Full
Aug 10
Full
Aug 17
Last Quarter
Aug 25
New
Sep 2
First Quarter

Hourly Weather History & Observations

Time (EDT) Temp. Heat Index Dew Point Humidity Pressure Visibility Wind Dir Wind Speed Gust Speed Precip Events Conditions
12:51 AM 59.0 °F - 57.0 °F 93% 30.11 in 10.0 mi Calm Calm - N/A   Clear
1:51 AM 57.0 °F - 55.9 °F 96% 30.11 in 10.0 mi Calm Calm - N/A   Clear
2:51 AM 57.0 °F - 55.0 °F 93% 30.12 in 10.0 mi Calm Calm - N/A   Clear
3:51 AM 55.0 °F - 54.0 °F 96% 30.12 in 10.0 mi Calm Calm - N/A   Clear
4:51 AM 53.1 °F - 52.0 °F 96% 30.12 in 9.0 mi Calm Calm - N/A   Clear
5:51 AM 53.1 °F - 51.1 °F 93% 30.13 in 10.0 mi Calm Calm - N/A   Clear
6:51 AM 55.9 °F - 54.0 °F 93% 30.14 in 10.0 mi Calm Calm - N/A   Clear
7:51 AM 61.0 °F - 57.0 °F 87% 30.14 in 10.0 mi Calm Calm - N/A   Clear
8:51 AM 69.1 °F - 57.9 °F 68% 30.15 in 10.0 mi NNW 5.8 mph - N/A   Clear
9:51 AM 73.4 °F - 59.0 °F 61% 30.15 in 10.0 mi WNW 5.8 mph - N/A   Clear
10:51 AM 78.1 °F - 59.0 °F 52% 30.14 in 10.0 mi Variable 4.6 mph - N/A   Clear
11:51 AM 80.1 °F 80.2 °F 55.9 °F 43% 30.13 in 10.0 mi Variable 3.5 mph - N/A   Clear
12:51 PM 82.9 °F 82.0 °F 55.0 °F 38% 30.12 in 10.0 mi Variable 3.5 mph - N/A   Clear
1:51 PM 84.0 °F 82.6 °F 54.0 °F 35% 30.11 in 10.0 mi Variable 4.6 mph - N/A   Clear
2:51 PM 84.0 °F - 52.0 °F 33% 30.10 in 10.0 mi Variable 3.5 mph - N/A   Mostly Cloudy
3:51 PM 84.9 °F - 52.0 °F 32% 30.09 in 10.0 mi Variable 4.6 mph - N/A   Mostly Cloudy
4:51 PM 82.4 °F 81.7 °F 55.4 °F 39% 30.08 in 10.0 mi East 4.6 mph - N/A   Mostly Cloudy
5:51 PM 80.1 °F 80.7 °F 59.0 °F 48% 30.10 in 10.0 mi ESE 6.9 mph - N/A   Partly Cloudy
6:51 PM 75.9 °F - 62.1 °F 62% 30.10 in 10.0 mi SE 4.6 mph - N/A   Clear
7:51 PM 73.4 °F - 62.6 °F 69% 30.10 in 10.0 mi SSE 3.5 mph - N/A   Mostly Cloudy
8:51 PM 71.1 °F - 61.0 °F 70% 30.12 in 10.0 mi Calm Calm - N/A   Mostly Cloudy
9:51 PM 69.1 °F - 63.0 °F 81% 30.13 in 10.0 mi Calm Calm - 0.00 in Rain Light Rain
10:51 PM 64.0 °F - 62.1 °F 93% 30.14 in 10.0 mi ESE 4.6 mph - 0.00 in   Clear
11:51 PM 64.4 °F - 62.6 °F 94% 30.14 in 10.0 mi Calm Calm - N/A   Clear